Time,TemperatureF,DewpointF,PressureIn,WindDirection,WindDirectionDegrees,WindSpeedMPH,WindSpeedGustMPH,Humidity,HourlyPrecipIn,Conditions,Clouds,dailyrainin,SoftwareType,DateUTC
2013-01-11 00:00:00,26.0,24.3,30.51,NW,315,0.0,0.0,93,0.00,,CLR,0.00,VWS V14.01,2013-01-11 05:00:00,
2013-01-11 00:10:00,26.0,24.3,30.51,NW,315,0.0,0.0,93,0.00,,CLR,0.00,VWS V14.01,2013-01-11 05:10:00,
2013-01-11 00:20:00,25.0,23.3,30.51,NW,315,0.0,0.0,93,0.00,,CLR,0.00,VWS V14.01,2013-01-11 05:20:00,
2013-01-11 00:30:00,25.0,23.5,30.50,NW,315,0.0,0.0,94,0.00,,CLR,0.00,VWS V14.01,2013-01-11 05:30:00,
2013-01-11 00:40:00,25.0,23.5,30.50,NW,315,0.0,0.0,94,0.00,,CLR,0.00,VWS V14.01,2013-01-11 05:40:00,
2013-01-11 00:50:00,25.0,23.5,30.50,NW,315,0.0,0.0,94,0.00,,CLR,0.00,VWS V14.01,2013-01-11 05:50:00,
2013-01-11 01:00:00,25.0,23.5,30.50,NW,315,0.0,0.0,94,0.00,,CLR,0.00,VWS V14.01,2013-01-11 06:00:00,
2013-01-11 01:10:00,25.0,23.5,30.49,NW,315,0.0,0.0,94,0.00,,CLR,0.00,VWS V14.01,2013-01-11 06:10:00,
2013-01-11 01:20:00,25.0,23.5,30.50,NW,315,0.0,0.0,94,0.00,,CLR,0.00,VWS V14.01,2013-01-11 06:20:00,
2013-01-11 01:30:00,25.0,23.5,30.50,NW,315,0.0,0.0,94,0.00,,CLR,0.00,VWS V14.01,2013-01-11 06:30:00,
2013-01-11 01:40:00,25.0,23.5,30.50,NW,315,0.0,0.0,94,0.00,,CLR,0.00,VWS V14.01,2013-01-11 06:40:00,
2013-01-11 01:50:00,25.0,23.3,30.50,NW,315,0.0,0.0,93,0.00,,CLR,0.00,VWS V14.01,2013-01-11 06:50:00,
2013-01-11 02:00:00,25.0,23.5,30.50,NW,315,0.0,0.0,94,0.00,,CLR,0.00,VWS V14.01,2013-01-11 07:00:00,
2013-01-11 02:10:00,25.0,23.5,30.50,NW,315,0.0,0.0,94,0.00,,CLR,0.00,VWS V14.01,2013-01-11 07:10:00,
2013-01-11 02:20:00,24.0,22.3,30.49,NW,315,0.0,0.0,93,0.00,,CLR,0.00,VWS V14.01,2013-01-11 07:20:00,
2013-01-11 02:30:00,24.0,22.3,30.49,NW,315,0.0,0.0,93,0.00,,CLR,0.00,VWS V14.01,2013-01-11 07:30:00,
2013-01-11 02:40:00,24.0,22.3,30.49,NW,315,0.0,0.0,93,0.00,,CLR,0.00,VWS V14.01,2013-01-11 07:40:00,
2013-01-11 02:50:00,23.0,21.3,30.49,NW,315,0.0,0.0,93,0.00,,CLR,0.00,VWS V14.01,2013-01-11 07:50:00,
2013-01-11 03:00:00,23.0,21.3,30.48,NW,315,0.0,0.0,93,0.00,,CLR,0.00,VWS V14.01,2013-01-11 08:00:00,
2013-01-11 03:10:00,23.0,21.3,30.48,NW,315,0.0,0.0,93,0.00,,CLR,0.00,VWS V14.01,2013-01-11 08:10:00,
2013-01-11 03:20:00,23.0,21.3,30.48,NW,315,0.0,0.0,93,0.00,,CLR,0.00,VWS V14.01,2013-01-11 08:20:00,
2013-01-11 03:30:00,23.0,21.3,30.47,NW,315,0.0,0.0,93,0.00,,CLR,0.00,VWS V14.01,2013-01-11 08:30:00,
2013-01-11 03:40:00,23.0,21.3,30.46,NW,315,0.0,0.0,93,0.00,,CLR,0.00,VWS V14.01,2013-01-11 08:40:00,
2013-01-11 03:50:00,23.0,21.3,30.46,NW,315,0.0,0.0,93,0.00,,CLR,0.00,VWS V14.01,2013-01-11 08:50:00,
2013-01-11 04:00:00,22.0,20.3,30.46,NW,315,0.0,0.0,93,0.00,,CLR,0.00,VWS V14.01,2013-01-11 09:00:00,
2013-01-11 04:10:00,22.0,20.3,30.46,NW,315,0.0,0.0,93,0.00,,CLR,0.00,VWS V14.01,2013-01-11 09:10:00,
2013-01-11 04:20:00,22.0,20.3,30.46,NW,315,0.0,0.0,93,0.00,,CLR,0.00,VWS V14.01,2013-01-11 09:20:00,
2013-01-11 04:30:00,22.0,20.3,30.46,NW,315,0.0,0.0,93,0.00,,CLR,0.00,VWS V14.01,2013-01-11 09:30:00,
2013-01-11 04:40:00,22.0,20.3,30.46,NW,315,0.0,0.0,93,0.00,,CLR,0.00,VWS V14.01,2013-01-11 09:40:00,
2013-01-11 04:50:00,22.0,20.3,30.45,NW,315,0.0,0.0,93,0.00,,CLR,0.00,VWS V14.01,2013-01-11 09:50:00,
2013-01-11 05:00:00,22.0,20.3,30.45,NW,315,0.0,0.0,93,0.00,,CLR,0.00,VWS V14.01,2013-01-11 10:00:00,
2013-01-11 05:10:00,22.0,20.3,30.46,NW,315,0.0,0.0,93,0.00,,CLR,0.00,VWS V14.01,2013-01-11 10:10:00,
2013-01-11 05:20:00,21.0,19.3,30.46,NW,315,0.0,0.0,93,0.00,,CLR,0.00,VWS V14.01,2013-01-11 10:20:00,
2013-01-11 05:30:00,21.0,19.3,30.47,NW,315,0.0,0.0,93,0.00,,CLR,0.00,VWS V14.01,2013-01-11 10:30:00,
2013-01-11 05:40:00,21.0,19.3,30.47,NW,315,0.0,0.0,93,0.00,,CLR,0.00,VWS V14.01,2013-01-11 10:40:00,
2013-01-11 05:50:00,21.0,19.3,30.48,NW,315,0.0,0.0,93,0.00,,CLR,0.00,VWS V14.01,2013-01-11 10:50:00,
2013-01-11 06:00:00,21.0,19.3,30.48,NW,315,0.0,0.0,93,0.00,,CLR,0.00,VWS V14.01,2013-01-11 11:00:00,
2013-01-11 06:10:00,21.0,19.3,30.48,NW,315,0.0,0.0,93,0.00,,CLR,0.00,VWS V14.01,2013-01-11 11:10:00,
2013-01-11 06:20:00,21.0,19.3,30.48,NW,315,0.0,0.0,93,0.00,,CLR,0.00,VWS V14.01,2013-01-11 11:20:00,
2013-01-11 06:30:00,21.0,19.3,30.48,NW,315,0.0,0.0,93,0.00,,CLR,0.00,VWS V14.01,2013-01-11 11:30:00,
2013-01-11 06:40:00,21.0,19.3,30.48,NW,315,0.0,0.0,93,0.00,,CLR,0.00,VWS V14.01,2013-01-11 11:40:00,
2013-01-11 06:50:00,21.0,19.3,30.48,NW,315,0.0,0.0,93,0.00,,CLR,0.00,VWS V14.01,2013-01-11 11:50:00,
2013-01-11 07:00:00,21.0,19.3,30.49,NW,315,0.0,0.0,93,0.00,,CLR,0.00,VWS V14.01,2013-01-11 12:00:00,
2013-01-11 07:10:00,21.0,19.3,30.49,NW,315,0.0,0.0,93,0.00,,CLR,0.00,VWS V14.01,2013-01-11 12:10:00,
2013-01-11 07:20:00,21.0,19.3,30.49,NW,315,0.0,0.0,93,0.00,,CLR,0.00,VWS V14.01,2013-01-11 12:20:00,
2013-01-11 07:30:00,21.0,19.3,30.49,NW,315,0.0,0.0,93,0.00,,CLR,0.00,VWS V14.01,2013-01-11 12:30:00,
2013-01-11 07:40:00,21.0,19.3,30.50,NW,315,0.0,0.0,93,0.00,,CLR,0.00,VWS V14.01,2013-01-11 12:40:00,
2013-01-11 07:50:00,22.0,20.3,30.49,NW,315,0.0,0.0,93,0.00,,CLR,0.00,VWS V14.01,2013-01-11 12:50:00,
2013-01-11 08:00:00,22.0,20.3,30.50,NW,315,0.0,0.0,93,0.00,,CLR,0.00,VWS V14.01,2013-01-11 13:00:00,
2013-01-11 08:10:00,22.0,20.3,30.50,NW,315,0.0,0.0,93,0.00,,CLR,0.00,VWS V14.01,2013-01-11 13:10:00,
2013-01-11 08:20:00,23.0,21.3,30.50,NW,315,0.0,0.0,93,0.00,,CLR,0.00,VWS V14.01,2013-01-11 13:20:00,
2013-01-11 08:30:00,24.0,22.3,30.50,NW,315,0.0,0.0,93,0.00,,CLR,0.00,VWS V14.01,2013-01-11 13:30:00,
2013-01-11 08:48:00,24.0,22.3,30.49,NW,315,0.0,0.0,93,0.00,,CLR,0.00,VWS V14.01,2013-01-11 13:48:00,
2013-01-11 08:53:00,25.0,23.5,30.49,NW,315,0.0,0.0,94,0.00,,CLR,0.00,VWS V14.01,2013-01-11 13:53:00,
2013-01-11 08:58:00,26.0,24.5,30.48,NW,315,0.0,0.0,94,0.00,,CLR,0.00,VWS V14.01,2013-01-11 13:58:00,
2013-01-11 09:03:00,27.0,25.5,30.48,NW,315,0.0,0.0,94,0.00,,CLR,0.00,VWS V14.01,2013-01-11 14:03:00,
2013-01-11 09:08:00,27.0,25.5,30.48,NW,315,0.0,0.0,94,0.00,,CLR,0.00,VWS V14.01,2013-01-11 14:08:00,
2013-01-11 09:13:00,28.0,26.5,30.48,NW,315,0.0,0.0,94,0.00,,CLR,0.00,VWS V14.01,2013-01-11 14:13:00,
2013-01-11 09:18:00,28.0,26.5,30.48,NW,315,0.0,0.0,94,0.00,,CLR,0.00,VWS V14.01,2013-01-11 14:18:00,
2013-01-11 09:23:00,29.0,26.4,30.49,NW,315,0.0,0.0,90,0.00,,CLR,0.00,VWS V14.01,2013-01-11 14:23:00,
2013-01-11 09:28:00,29.0,25.4,30.48,NW,315,0.0,1.0,86,0.00,,CLR,0.00,VWS V14.01,2013-01-11 14:28:00,
2013-01-11 09:33:00,30.0,26.0,30.48,NE,45,0.0,0.0,85,0.00,,CLR,0.00,VWS V14.01,2013-01-11 14:33:00,
2013-01-11 09:34:00,30.0,26.0,30.48,NE,45,0.0,0.0,85,0.00,,CLR,0.00,VWS V14.01,2013-01-11 14:34:00,
2013-01-11 09:38:00,31.0,26.7,30.48,NE,45,0.0,0.0,84,0.00,,CLR,0.00,VWS V14.01,2013-01-11 14:38:00,
2013-01-11 09:39:00,31.0,26.5,30.48,NE,45,0.0,0.0,83,0.00,,CLR,0.00,VWS V14.01,2013-01-11 14:39:00,
2013-01-11 09:43:00,31.0,25.6,30.48,NE,45,0.0,1.0,80,0.00,,CLR,0.00,VWS V14.01,2013-01-11 14:43:00,
2013-01-11 09:44:00,31.0,25.6,30.48,NE,45,0.0,1.0,80,0.00,,CLR,0.00,VWS V14.01,2013-01-11 14:44:00,
2013-01-11 09:48:00,31.0,25.9,30.48,North,360,0.0,2.0,81,0.00,,CLR,0.00,VWS V14.01,2013-01-11 14:48:00,
2013-01-11 09:49:00,32.0,27.1,30.48,North,360,0.0,2.0,82,0.00,,CLR,0.00,VWS V14.01,2013-01-11 14:49:00,
2013-01-11 09:53:00,32.0,26.5,30.48,North,360,0.0,0.0,80,0.00,,CLR,0.00,VWS V14.01,2013-01-11 14:53:00,
2013-01-11 09:54:00,32.0,26.8,30.48,North,360,0.0,0.0,81,0.00,,CLR,0.00,VWS V14.01,2013-01-11 14:54:00,
2013-01-11 09:58:00,32.0,26.2,30.48,NNW,337,0.0,2.0,79,0.00,,CLR,0.00,VWS V14.01,2013-01-11 14:58:00,
2013-01-11 09:59:00,32.0,26.2,30.48,NNW,337,1.0,2.0,79,0.00,,CLR,0.00,VWS V14.01,2013-01-11 14:59:00,
2013-01-11 10:04:00,33.0,26.3,30.49,North,360,0.0,2.0,76,0.00,,CLR,0.00,VWS V14.01,2013-01-11 15:04:00,
2013-01-11 10:09:00,33.0,26.0,30.48,NNW,337,0.0,2.0,75,0.00,,CLR,0.00,VWS V14.01,2013-01-11 15:09:00,
2013-01-11 10:14:00,33.0,25.3,30.48,NNE,22,0.0,0.0,73,0.00,,CLR,0.00,VWS V14.01,2013-01-11 15:14:00,
2013-01-11 10:19:00,34.0,26.3,30.48,NNE,22,0.0,0.0,73,0.00,,CLR,0.00,VWS V14.01,2013-01-11 15:19:00,
2013-01-11 10:24:00,34.0,26.3,30.48,NNE,22,0.0,0.0,73,0.00,,CLR,0.00,VWS V14.01,2013-01-11 15:24:00,
2013-01-11 10:25:00,35.0,26.6,30.47,NNE,22,0.0,0.0,71,0.00,,CLR,0.00,VWS V14.01,2013-01-11 15:25:00,
2013-01-11 10:29:00,35.0,25.9,30.47,NNE,22,0.0,0.0,69,0.00,,CLR,0.00,VWS V14.01,2013-01-11 15:29:00,
2013-01-11 10:30:00,35.0,25.9,30.47,NNE,22,0.0,0.0,69,0.00,,CLR,0.00,VWS V14.01,2013-01-11 15:30:00,
2013-01-11 10:34:00,35.0,25.9,30.47,NNE,22,0.0,0.0,69,0.00,,CLR,0.00,VWS V14.01,2013-01-11 15:34:00,
2013-01-11 10:35:00,36.0,26.8,30.47,NNE,22,0.0,0.0,69,0.00,,CLR,0.00,VWS V14.01,2013-01-11 15:35:00,
2013-01-11 10:39:00,36.0,26.5,30.47,NNE,22,0.0,0.0,68,0.00,,CLR,0.00,VWS V14.01,2013-01-11 15:39:00,
2013-01-11 10:40:00,36.0,26.5,30.47,NNE,22,0.0,0.0,68,0.00,,CLR,0.00,VWS V14.01,2013-01-11 15:40:00,
2013-01-11 10:44:00,36.0,26.1,30.47,NNE,22,0.0,0.0,67,0.00,,CLR,0.00,VWS V14.01,2013-01-11 15:44:00,
2013-01-11 10:45:00,36.0,26.5,30.47,NNE,22,0.0,0.0,68,0.00,,CLR,0.00,VWS V14.01,2013-01-11 15:45:00,
2013-01-11 10:49:00,37.0,27.1,30.47,NNE,22,0.0,0.0,67,0.00,,CLR,0.00,VWS V14.01,2013-01-11 15:49:00,
2013-01-11 10:50:00,37.0,27.1,30.47,NNE,22,0.0,0.0,67,0.00,,CLR,0.00,VWS V14.01,2013-01-11 15:50:00,
2013-01-11 10:55:00,37.0,26.3,30.47,NNW,337,0.0,0.0,65,0.00,,CLR,0.00,VWS V14.01,2013-01-11 15:55:00,
2013-01-11 10:56:00,37.0,26.3,30.47,NNW,337,0.0,0.0,65,0.00,,CLR,0.00,VWS V14.01,2013-01-11 15:56:00,
2013-01-11 11:00:00,37.0,26.3,30.46,NNW,337,0.0,0.0,65,0.00,,CLR,0.00,VWS V14.01,2013-01-11 16:00:00,
2013-01-11 11:01:00,37.0,26.3,30.46,NNW,337,0.0,0.0,65,0.00,,CLR,0.00,VWS V14.01,2013-01-11 16:01:00,
2013-01-11 11:05:00,38.0,28.0,30.46,ESE,112,1.0,2.0,67,0.00,,CLR,0.00,VWS V14.01,2013-01-11 16:05:00,
2013-01-11 11:06:00,38.0,27.7,30.46,ESE,112,1.0,2.0,66,0.00,,CLR,0.00,VWS V14.01,2013-01-11 16:06:00,
2013-01-11 11:10:00,38.0,27.7,30.45,ESE,112,0.0,2.0,66,0.00,,CLR,0.00,VWS V14.01,2013-01-11 16:10:00,
2013-01-11 11:11:00,38.0,28.0,30.45,East,90,1.0,2.0,67,0.00,,CLR,0.00,VWS V14.01,2013-01-11 16:11:00,
2013-01-11 11:15:00,38.0,27.7,30.45,East,90,0.0,2.0,66,0.00,,CLR,0.00,VWS V14.01,2013-01-11 16:15:00,
2013-01-11 11:16:00,38.0,28.0,30.45,East,90,0.0,2.0,67,0.00,,CLR,0.00,VWS V14.01,2013-01-11 16:16:00,
2013-01-11 11:20:00,38.0,27.7,30.45,ESE,112,1.0,2.0,66,0.00,,CLR,0.00,VWS V14.01,2013-01-11 16:20:00,
2013-01-11 11:21:00,38.0,27.7,30.45,ESE,112,0.0,1.0,66,0.00,,CLR,0.00,VWS V14.01,2013-01-11 16:21:00,
2013-01-11 11:25:00,39.0,29.4,30.45,ENE,67,0.0,1.0,68,0.00,,CLR,0.00,VWS V14.01,2013-01-11 16:25:00,
2013-01-11 11:26:00,38.0,28.0,30.45,ENE,67,0.0,1.0,67,0.00,,CLR,0.00,VWS V14.01,2013-01-11 16:26:00,
2013-01-11 11:30:00,39.0,28.6,30.44,East,90,0.0,2.0,66,0.00,,CLR,0.00,VWS V14.01,2013-01-11 16:30:00,
2013-01-11 11:31:00,38.0,28.0,30.44,East,90,0.0,0.0,67,0.00,,CLR,0.00,VWS V14.01,2013-01-11 16:31:00,
2013-01-11 11:32:00,38.0,28.0,30.44,East,90,0.0,0.0,67,0.00,,CLR,0.00,VWS V14.01,2013-01-11 16:32:00,
2013-01-11 11:35:00,39.0,29.4,30.44,East,90,2.0,2.0,68,0.00,,CLR,0.00,VWS V14.01,2013-01-11 16:35:00,
2013-01-11 11:36:00,39.0,29.0,30.44,ENE,67,0.0,2.0,67,0.00,,CLR,0.00,VWS V14.01,2013-01-11 16:36:00,
2013-01-11 11:37:00,39.0,29.0,30.44,ENE,67,0.0,2.0,67,0.00,,CLR,0.00,VWS V14.01,2013-01-11 16:37:00,
2013-01-11 11:40:00,39.0,29.0,30.43,ESE,112,0.0,2.0,67,0.00,,CLR,0.00,VWS V14.01,2013-01-11 16:40:00,
2013-01-11 11:41:00,38.0,28.0,30.43,ESE,112,0.0,0.0,67,0.00,,CLR,0.00,VWS V14.01,2013-01-11 16:41:00,
2013-01-11 11:42:00,38.0,28.4,30.43,ESE,112,0.0,0.0,68,0.00,,CLR,0.00,VWS V14.01,2013-01-11 16:42:00,
2013-01-11 11:45:00,39.0,29.4,30.43,ESE,112,0.0,0.0,68,0.00,,CLR,0.00,VWS V14.01,2013-01-11 16:45:00,
2013-01-11 11:46:00,38.0,28.0,30.43,ENE,67,0.0,1.0,67,0.00,,CLR,0.00,VWS V14.01,2013-01-11 16:46:00,
2013-01-11 11:47:00,38.0,28.4,30.43,ENE,67,0.0,1.0,68,0.00,,CLR,0.00,VWS V14.01,2013-01-11 16:47:00,
2013-01-11 11:50:00,39.0,29.0,30.43,East,90,1.0,1.0,67,0.00,,CLR,0.00,VWS V14.01,2013-01-11 16:50:00,
2013-01-11 11:51:00,38.0,28.4,30.43,East,90,0.0,1.0,68,0.00,,CLR,0.00,VWS V14.01,2013-01-11 16:51:00,
2013-01-11 11:52:00,38.0,28.4,30.43,East,90,0.0,1.0,68,0.00,,CLR,0.00,VWS V14.01,2013-01-11 16:52:00,
2013-01-11 11:55:00,39.0,29.7,30.43,East,90,0.0,1.0,69,0.00,,CLR,0.00,VWS V14.01,2013-01-11 16:55:00,
2013-01-11 11:56:00,39.0,29.7,30.43,East,90,0.0,1.0,69,0.00,,CLR,0.00,VWS V14.01,2013-01-11 16:56:00,
2013-01-11 11:57:00,39.0,29.7,30.43,East,90,0.0,1.0,69,0.00,,CLR,0.00,VWS V14.01,2013-01-11 16:57:00,
2013-01-11 12:00:00,39.0,29.4,30.42,ESE,112,1.0,1.0,68,0.00,,CLR,0.00,VWS V14.01,2013-01-11 17:00:00,
2013-01-11 12:01:00,39.0,29.4,30.42,SE,135,0.0,1.0,68,0.00,,CLR,0.00,VWS V14.01,2013-01-11 17:01:00,
2013-01-11 12:02:00,39.0,29.4,30.42,SE,135,0.0,1.0,68,0.00,,CLR,0.00,VWS V14.01,2013-01-11 17:02:00,
2013-01-11 12:05:00,39.0,29.4,30.42,SE,135,0.0,1.0,68,0.00,,CLR,0.00,VWS V14.01,2013-01-11 17:05:00,
2013-01-11 12:06:00,39.0,29.4,30.42,SE,135,0.0,1.0,68,0.00,,CLR,0.00,VWS V14.01,2013-01-11 17:06:00,
2013-01-11 12:07:00,39.0,29.4,30.42,SSE,157,2.0,2.0,68,0.00,,CLR,0.00,VWS V14.01,2013-01-11 17:07:00,
2013-01-11 12:10:00,39.0,29.7,30.42,ESE,112,1.0,1.0,69,0.00,,CLR,0.00,VWS V14.01,2013-01-11 17:10:00,
2013-01-11 12:11:00,39.0,29.7,30.42,ESE,112,0.0,1.0,69,0.00,,CLR,0.00,VWS V14.01,2013-01-11 17:11:00,
2013-01-11 12:12:00,39.0,29.7,30.42,ESE,112,0.0,1.0,69,0.00,,CLR,0.00,VWS V14.01,2013-01-11 17:12:00,
2013-01-11 12:15:00,39.0,29.7,30.42,ENE,67,0.0,2.0,69,0.00,,CLR,0.00,VWS V14.01,2013-01-11 17:15:00,
2013-01-11 12:17:00,39.0,29.7,30.42,ENE,67,0.0,2.0,69,0.00,,CLR,0.00,VWS V14.01,2013-01-11 17:17:00,
2013-01-11 12:21:00,39.0,30.1,30.41,ENE,67,0.0,0.0,70,0.00,,CLR,0.00,VWS V14.01,2013-01-11 17:21:00,
2013-01-11 12:22:00,39.0,29.7,30.41,ESE,112,1.0,2.0,69,0.00,,CLR,0.00,VWS V14.01,2013-01-11 17:22:00,
2013-01-11 12:23:00,39.0,29.7,30.41,East,90,0.0,2.0,69,0.00,,CLR,0.00,VWS V14.01,2013-01-11 17:23:00,
2013-01-11 12:26:00,39.0,30.1,30.41,East,90,0.0,2.0,70,0.00,,CLR,0.00,VWS V14.01,2013-01-11 17:26:00,
2013-01-11 12:27:00,39.0,30.1,30.41,East,90,1.0,2.0,70,0.00,,CLR,0.00,VWS V14.01,2013-01-11 17:27:00,
2013-01-11 12:28:00,39.0,30.1,30.41,ESE,112,2.0,2.0,70,0.00,,CLR,0.00,VWS V14.01,2013-01-11 17:28:00,
2013-01-11 12:31:00,39.0,30.1,30.41,ESE,112,2.0,2.0,70,0.00,,CLR,0.00,VWS V14.01,2013-01-11 17:31:00,
2013-01-11 12:32:00,39.0,30.1,30.41,ESE,112,1.0,2.0,70,0.00,,CLR,0.00,VWS V14.01,2013-01-11 17:32:00,
2013-01-11 12:33:00,39.0,30.1,30.41,ESE,112,0.0,2.0,70,0.00,,CLR,0.00,VWS V14.01,2013-01-11 17:33:00,
2013-01-11 12:36:00,39.0,30.1,30.41,SSE,157,0.0,2.0,70,0.00,,CLR,0.00,VWS V14.01,2013-01-11 17:36:00,
2013-01-11 12:37:00,39.0,30.1,30.41,East,90,2.0,2.0,70,0.00,,CLR,0.00,VWS V14.01,2013-01-11 17:37:00,
2013-01-11 12:38:00,39.0,30.1,30.41,East,90,1.0,2.0,70,0.00,,CLR,0.00,VWS V14.01,2013-01-11 17:38:00,
2013-01-11 12:42:00,39.0,30.4,30.41,SE,135,0.0,2.0,71,0.00,,CLR,0.00,VWS V14.01,2013-01-11 17:42:00,
2013-01-11 12:43:00,39.0,30.4,30.41,East,90,1.0,2.0,71,0.00,,CLR,0.00,VWS V14.01,2013-01-11 17:43:00,
2013-01-11 12:47:00,39.0,30.4,30.41,ESE,112,0.0,2.0,71,0.00,,CLR,0.00,VWS V14.01,2013-01-11 17:47:00,
2013-01-11 12:48:00,39.0,30.4,30.41,ESE,112,0.0,2.0,71,0.00,,CLR,0.00,VWS V14.01,2013-01-11 17:48:00,
2013-01-11 12:52:00,39.0,30.8,30.42,NNW,337,0.0,2.0,72,0.00,,CLR,0.00,VWS V14.01,2013-01-11 17:52:00,
2013-01-11 12:53:00,39.0,30.8,30.42,NNW,337,0.0,2.0,72,0.00,,CLR,0.00,VWS V14.01,2013-01-11 17:53:00,
2013-01-11 12:57:00,39.0,30.8,30.42,SW,225,0.0,2.0,72,0.00,,CLR,0.00,VWS V14.01,2013-01-11 17:57:00,
2013-01-11 12:58:00,39.0,30.8,30.42,SW,225,0.0,2.0,72,0.00,,CLR,0.00,VWS V14.01,2013-01-11 17:58:00,
2013-01-11 13:02:00,39.0,30.8,30.42,SSW,202,0.0,0.0,72,0.00,,CLR,0.00,VWS V14.01,2013-01-11 18:02:00,
2013-01-11 13:03:00,39.0,30.8,30.42,SSW,202,0.0,0.0,72,0.00,,CLR,0.00,VWS V14.01,2013-01-11 18:03:00,
2013-01-11 13:07:00,39.0,30.8,30.41,SSW,202,0.0,0.0,72,0.00,,CLR,0.00,VWS V14.01,2013-01-11 18:07:00,
2013-01-11 13:08:00,39.0,31.1,30.41,SSW,202,0.0,0.0,73,0.00,,CLR,0.00,VWS V14.01,2013-01-11 18:08:00,
2013-01-11 13:12:00,39.0,31.1,30.41,ESE,112,0.0,1.0,73,0.00,,CLR,0.00,VWS V14.01,2013-01-11 18:12:00,
2013-01-11 13:13:00,39.0,31.4,30.41,ESE,112,0.0,1.0,74,0.00,,CLR,0.00,VWS V14.01,2013-01-11 18:13:00,
2013-01-11 13:17:00,38.0,30.5,30.40,ESE,112,0.0,1.0,74,0.00,,CLR,0.00,VWS V14.01,2013-01-11 18:17:00,
2013-01-11 13:18:00,38.0,30.5,30.40,ESE,112,0.0,1.0,74,0.00,,CLR,0.00,VWS V14.01,2013-01-11 18:18:00,
2013-01-11 13:22:00,38.0,30.8,30.40,ESE,112,0.0,0.0,75,0.00,,CLR,0.00,VWS V14.01,2013-01-11 18:22:00,
2013-01-11 13:23:00,38.0,30.8,30.40,ESE,112,0.0,0.0,75,0.00,,CLR,0.00,VWS V14.01,2013-01-11 18:23:00,
2013-01-11 13:24:00,38.0,30.8,30.40,ESE,112,0.0,0.0,75,0.00,,CLR,0.00,VWS V14.01,2013-01-11 18:24:00,
2013-01-11 13:27:00,38.0,30.8,30.40,ESE,112,0.0,0.0,75,0.00,,CLR,0.00,VWS V14.01,2013-01-11 18:27:00,
2013-01-11 13:28:00,38.0,30.8,30.40,ESE,112,0.0,0.0,75,0.00,,CLR,0.00,VWS V14.01,2013-01-11 18:28:00,
2013-01-11 13:29:00,38.0,30.8,30.40,ESE,112,0.0,0.0,75,0.00,,CLR,0.00,VWS V14.01,2013-01-11 18:29:00,
2013-01-11 13:33:00,38.0,30.8,30.40,ESE,112,0.0,0.0,75,0.00,,CLR,0.00,VWS V14.01,2013-01-11 18:33:00,
2013-01-11 13:34:00,38.0,30.8,30.40,ESE,112,0.0,0.0,75,0.00,,CLR,0.00,VWS V14.01,2013-01-11 18:34:00,
2013-01-11 13:38:00,39.0,31.8,30.40,ESE,112,0.0,0.0,75,0.00,,CLR,0.00,VWS V14.01,2013-01-11 18:38:00,
2013-01-11 13:39:00,39.0,31.8,30.40,ESE,112,0.0,0.0,75,0.00,,CLR,0.00,VWS V14.01,2013-01-11 18:39:00,
2013-01-11 13:43:00,39.0,31.8,30.41,ESE,112,0.0,0.0,75,0.00,,CLR,0.00,VWS V14.01,2013-01-11 18:43:00,
2013-01-11 13:44:00,39.0,31.8,30.41,ESE,112,0.0,0.0,75,0.00,,CLR,0.00,VWS V14.01,2013-01-11 18:44:00,
2013-01-11 13:48:00,39.0,31.8,30.41,ESE,112,0.0,0.0,75,0.00,,CLR,0.00,VWS V14.01,2013-01-11 18:48:00,
2013-01-11 13:49:00,39.0,31.8,30.41,ESE,112,0.0,0.0,75,0.00,,CLR,0.00,VWS V14.01,2013-01-11 18:49:00,
2013-01-11 13:53:00,39.0,31.8,30.40,ESE,112,0.0,0.0,75,0.00,,CLR,0.00,VWS V14.01,2013-01-11 18:53:00,
2013-01-11 13:54:00,39.0,31.8,30.40,ESE,112,1.0,1.0,75,0.00,,CLR,0.00,VWS V14.01,2013-01-11 18:54:00,
2013-01-11 13:58:00,39.0,31.8,30.40,ESE,112,0.0,1.0,75,0.00,,CLR,0.00,VWS V14.01,2013-01-11 18:58:00,
2013-01-11 13:59:00,39.0,31.8,30.40,ESE,112,0.0,1.0,75,0.00,,CLR,0.00,VWS V14.01,2013-01-11 18:59:00,
2013-01-11 14:03:00,38.0,31.1,30.40,East,90,0.0,0.0,76,0.00,,CLR,0.00,VWS V14.01,2013-01-11 19:03:00,
2013-01-11 14:04:00,38.0,31.1,30.40,East,90,0.0,0.0,76,0.00,,CLR,0.00,VWS V14.01,2013-01-11 19:04:00,
2013-01-11 14:08:00,38.0,31.1,30.39,East,90,0.0,0.0,76,0.00,,CLR,0.00,VWS V14.01,2013-01-11 19:08:00,
2013-01-11 14:09:00,38.0,31.1,30.39,East,90,0.0,0.0,76,0.00,,CLR,0.00,VWS V14.01,2013-01-11 19:09:00,
2013-01-11 14:10:00,39.0,32.1,30.39,East,90,0.0,0.0,76,0.00,,CLR,0.00,VWS V14.01,2013-01-11 19:10:00,
2013-01-11 14:13:00,38.0,31.1,30.39,East,90,0.0,1.0,76,0.00,,CLR,0.00,VWS V14.01,2013-01-11 19:13:00,
2013-01-11 14:14:00,38.0,31.1,30.39,East,90,0.0,1.0,76,0.00,,CLR,0.00,VWS V14.01,2013-01-11 19:14:00,
2013-01-11 14:15:00,38.0,31.1,30.38,East,90,0.0,1.0,76,0.00,,CLR,0.00,VWS V14.01,2013-01-11 19:15:00,
2013-01-11 14:18:00,38.0,31.1,30.38,East,90,0.0,1.0,76,0.00,,CLR,0.00,VWS V14.01,2013-01-11 19:18:00,
2013-01-11 14:19:00,38.0,31.1,30.38,East,90,0.0,1.0,76,0.00,,CLR,0.00,VWS V14.01,2013-01-11 19:19:00,
2013-01-11 14:20:00,38.0,31.1,30.38,East,90,0.0,1.0,76,0.00,,CLR,0.00,VWS V14.01,2013-01-11 19:20:00,
2013-01-11 14:23:00,38.0,31.1,30.38,East,90,0.0,0.0,76,0.00,,CLR,0.00,VWS V14.01,2013-01-11 19:23:00,
2013-01-11 14:24:00,38.0,31.1,30.38,East,90,0.0,0.0,76,0.00,,CLR,0.00,VWS V14.01,2013-01-11 19:24:00,
2013-01-11 14:25:00,38.0,31.1,30.38,East,90,0.0,0.0,76,0.00,,CLR,0.00,VWS V14.01,2013-01-11 19:25:00,
2013-01-11 14:28:00,38.0,31.1,30.38,East,90,0.0,0.0,76,0.00,,CLR,0.00,VWS V14.01,2013-01-11 19:28:00,
2013-01-11 14:29:00,38.0,31.1,30.38,East,90,0.0,0.0,76,0.00,,CLR,0.00,VWS V14.01,2013-01-11 19:29:00,
2013-01-11 14:30:00,38.0,31.1,30.38,East,90,0.0,0.0,76,0.00,,CLR,0.00,VWS V14.01,2013-01-11 19:30:00,
2013-01-11 14:33:00,38.0,31.4,30.38,East,90,0.0,0.0,77,0.00,,CLR,0.00,VWS V14.01,2013-01-11 19:33:00,
2013-01-11 14:34:00,38.0,31.1,30.38,East,90,0.0,0.0,76,0.00,,CLR,0.00,VWS V14.01,2013-01-11 19:34:00,
2013-01-11 14:35:00,38.0,31.4,30.38,East,90,0.0,0.0,77,0.00,,CLR,0.00,VWS V14.01,2013-01-11 19:35:00,
2013-01-11 14:38:00,38.0,31.4,30.38,East,90,0.0,0.0,77,0.00,,CLR,0.00,VWS V14.01,2013-01-11 19:38:00,
2013-01-11 14:40:00,38.0,31.4,30.38,East,90,0.0,0.0,77,0.00,,CLR,0.00,VWS V14.01,2013-01-11 19:40:00,
2013-01-11 14:43:00,38.0,31.4,30.38,East,90,0.0,0.0,77,0.00,,CLR,0.00,VWS V14.01,2013-01-11 19:43:00,
2013-01-11 14:45:00,38.0,31.4,30.38,East,90,0.0,0.0,77,0.00,,CLR,0.00,VWS V14.01,2013-01-11 19:45:00,
2013-01-11 14:49:00,38.0,31.4,30.38,East,90,0.0,0.0,77,0.00,,CLR,0.00,VWS V14.01,2013-01-11 19:49:00,
2013-01-11 14:50:00,38.0,31.8,30.37,East,90,1.0,1.0,78,0.00,,CLR,0.00,VWS V14.01,2013-01-11 19:50:00,
2013-01-11 14:51:00,38.0,31.8,30.37,East,90,1.0,1.0,78,0.00,,CLR,0.00,VWS V14.01,2013-01-11 19:51:00,
2013-01-11 14:54:00,38.0,31.8,30.37,East,90,0.0,1.0,78,0.00,,CLR,0.00,VWS V14.01,2013-01-11 19:54:00,
2013-01-11 14:55:00,38.0,31.8,30.37,East,90,0.0,1.0,78,0.00,,CLR,0.00,VWS V14.01,2013-01-11 19:55:00,
2013-01-11 14:56:00,38.0,31.8,30.37,East,90,0.0,1.0,78,0.00,,CLR,0.00,VWS V14.01,2013-01-11 19:56:00,
2013-01-11 14:59:00,38.0,31.8,30.37,East,90,0.0,1.0,78,0.00,,CLR,0.00,VWS V14.01,2013-01-11 19:59:00,
2013-01-11 15:00:00,38.0,31.8,30.37,East,90,0.0,1.0,78,0.00,,CLR,0.00,VWS V14.01,2013-01-11 20:00:00,
2013-01-11 15:01:00,38.0,31.8,30.37,East,90,0.0,0.0,78,0.00,,CLR,0.00,VWS V14.01,2013-01-11 20:01:00,
2013-01-11 15:04:00,38.0,31.8,30.37,East,90,0.0,0.0,78,0.00,,CLR,0.00,VWS V14.01,2013-01-11 20:04:00,
2013-01-11 15:05:00,38.0,31.8,30.37,East,90,0.0,0.0,78,0.00,,CLR,0.00,VWS V14.01,2013-01-11 20:05:00,
2013-01-11 15:06:00,38.0,31.8,30.37,East,90,0.0,0.0,78,0.00,,CLR,0.00,VWS V14.01,2013-01-11 20:06:00,
2013-01-11 15:09:00,38.0,31.8,30.37,East,90,0.0,0.0,78,0.00,,CLR,0.00,VWS V14.01,2013-01-11 20:09:00,
2013-01-11 15:10:00,38.0,31.8,30.37,East,90,0.0,0.0,78,0.00,,CLR,0.00,VWS V14.01,2013-01-11 20:10:00,
2013-01-11 15:11:00,38.0,31.8,30.37,East,90,0.0,0.0,78,0.00,,CLR,0.00,VWS V14.01,2013-01-11 20:11:00,
2013-01-11 15:14:00,38.0,31.8,30.37,East,90,0.0,0.0,78,0.00,,CLR,0.00,VWS V14.01,2013-01-11 20:14:00,
2013-01-11 15:15:00,38.0,31.8,30.37,East,90,0.0,0.0,78,0.00,,CLR,0.00,VWS V14.01,2013-01-11 20:15:00,
2013-01-11 15:16:00,38.0,31.8,30.37,East,90,0.0,0.0,78,0.00,,CLR,0.00,VWS V14.01,2013-01-11 20:16:00,
2013-01-11 15:19:00,37.0,30.8,30.37,East,90,0.0,0.0,78,0.00,,CLR,0.00,VWS V14.01,2013-01-11 20:19:00,
2013-01-11 15:20:00,38.0,31.8,30.36,East,90,0.0,0.0,78,0.00,,CLR,0.00,VWS V14.01,2013-01-11 20:20:00,
2013-01-11 15:21:00,37.0,30.8,30.36,East,90,0.0,0.0,78,0.00,,CLR,0.00,VWS V14.01,2013-01-11 20:21:00,
2013-01-11 15:25:00,38.0,31.8,30.35,East,90,0.0,0.0,78,0.00,,CLR,0.00,VWS V14.01,2013-01-11 20:25:00,
2013-01-11 15:26:00,37.0,30.8,30.35,East,90,0.0,0.0,78,0.00,,CLR,0.00,VWS V14.01,2013-01-11 20:26:00,
2013-01-11 15:30:00,37.0,30.8,30.35,East,90,0.0,0.0,78,0.00,,CLR,0.00,VWS V14.01,2013-01-11 20:30:00,
2013-01-11 15:31:00,37.0,30.8,30.35,East,90,0.0,0.0,78,0.00,,CLR,0.00,VWS V14.01,2013-01-11 20:31:00,
2013-01-11 15:35:00,37.0,30.8,30.35,East,90,0.0,0.0,78,0.00,,BKN110,0.00,VWS V14.01,2013-01-11 20:35:00,
2013-01-11 15:36:00,37.0,30.8,30.35,East,90,0.0,0.0,78,0.00,,BKN110,0.00,VWS V14.01,2013-01-11 20:36:00,
2013-01-11 15:40:00,37.0,31.1,30.35,East,90,0.0,0.0,79,0.00,,BKN110,0.00,VWS V14.01,2013-01-11 20:40:00,
2013-01-11 15:41:00,37.0,31.1,30.35,East,90,0.0,0.0,79,0.00,,BKN110,0.00,VWS V14.01,2013-01-11 20:41:00,
2013-01-11 15:42:00,37.0,31.1,30.35,East,90,0.0,0.0,79,0.00,,BKN110,0.00,VWS V14.01,2013-01-11 20:42:00,
2013-01-11 15:45:00,37.0,31.1,30.34,East,90,0.0,0.0,79,0.00,,BKN110,0.00,VWS V14.01,2013-01-11 20:45:00,
2013-01-11 15:46:00,37.0,31.1,30.34,East,90,0.0,0.0,79,0.00,,BKN110,0.00,VWS V14.01,2013-01-11 20:46:00,
2013-01-11 15:47:00,37.0,31.1,30.34,East,90,0.0,0.0,79,0.00,,BKN110,0.00,VWS V14.01,2013-01-11 20:47:00,
2013-01-11 15:50:00,37.0,31.4,30.33,East,90,0.0,2.0,80,0.00,,BKN110,0.00,VWS V14.01,2013-01-11 20:50:00,
2013-01-11 15:51:00,37.0,31.4,30.33,East,90,0.0,1.0,80,0.00,,BKN110,0.00,VWS V14.01,2013-01-11 20:51:00,
2013-01-11 15:52:00,37.0,31.4,30.33,East,90,0.0,1.0,80,0.00,,BKN110,0.00,VWS V14.01,2013-01-11 20:52:00,
2013-01-11 15:55:00,37.0,31.1,30.34,East,90,0.0,1.0,79,0.00,,BKN110,0.00,VWS V14.01,2013-01-11 20:55:00,
2013-01-11 15:56:00,37.0,31.4,30.34,ESE,112,1.0,2.0,80,0.00,,BKN110,0.00,VWS V14.01,2013-01-11 20:56:00,
2013-01-11 15:57:00,37.0,31.4,30.34,ESE,112,0.0,2.0,80,0.00,,BKN110,0.00,VWS V14.01,2013-01-11 20:57:00,
2013-01-11 16:00:00,37.0,31.4,30.34,ESE,112,0.0,2.0,80,0.00,,BKN110,0.00,VWS V14.01,2013-01-11 21:00:00,
2013-01-11 16:01:00,37.0,31.4,30.34,ESE,112,0.0,0.0,80,0.00,,BKN110,0.00,VWS V14.01,2013-01-11 21:01:00,
2013-01-11 16:02:00,37.0,31.4,30.34,ESE,112,0.0,0.0,80,0.00,,BKN110,0.00,VWS V14.01,2013-01-11 21:02:00,
2013-01-11 16:05:00,37.0,31.4,30.34,ESE,112,0.0,0.0,80,0.00,,BKN110,0.00,VWS V14.01,2013-01-11 21:05:00,
2013-01-11 16:06:00,37.0,31.4,30.34,ESE,112,0.0,0.0,80,0.00,,BKN110,0.00,VWS V14.01,2013-01-11 21:06:00,
2013-01-11 16:07:00,37.0,31.4,30.34,ESE,112,0.0,0.0,80,0.00,,BKN110,0.00,VWS V14.01,2013-01-11 21:07:00,
2013-01-11 16:10:00,37.0,31.4,30.33,ESE,112,0.0,0.0,80,0.00,,BKN110,0.00,VWS V14.01,2013-01-11 21:10:00,
2013-01-11 16:11:00,37.0,31.4,30.33,ESE,112,0.0,0.0,80,0.00,,BKN110,0.00,VWS V14.01,2013-01-11 21:11:00,
2013-01-11 16:12:00,37.0,31.4,30.33,ESE,112,0.0,0.0,80,0.00,,BKN110,0.00,VWS V14.01,2013-01-11 21:12:00,
2013-01-11 16:15:00,37.0,31.4,30.33,ESE,112,0.0,0.0,80,0.00,,BKN110,0.00,VWS V14.01,2013-01-11 21:15:00,
2013-01-11 16:16:00,36.0,30.8,30.33,ESE,112,0.0,0.0,81,0.00,,BKN110,0.00,VWS V14.01,2013-01-11 21:16:00,
2013-01-11 16:17:00,36.0,30.8,30.33,ESE,112,0.0,0.0,81,0.00,,BKN110,0.00,VWS V14.01,2013-01-11 21:17:00,
2013-01-11 16:18:00,36.0,30.8,30.33,ESE,112,0.0,0.0,81,0.00,,BKN110,0.00,VWS V14.01,2013-01-11 21:18:00,
2013-01-11 16:20:00,37.0,31.4,30.33,ESE,112,0.0,0.0,80,0.00,,BKN110,0.00,VWS V14.01,2013-01-11 21:20:00,
2013-01-11 16:21:00,36.0,30.8,30.33,ESE,112,0.0,0.0,81,0.00,,BKN110,0.00,VWS V14.01,2013-01-11 21:21:00,
2013-01-11 16:22:00,36.0,30.8,30.33,ESE,112,0.0,0.0,81,0.00,,BKN110,0.00,VWS V14.01,2013-01-11 21:22:00,
2013-01-11 16:23:00,36.0,30.8,30.33,ESE,112,0.0,0.0,81,0.00,,BKN110,0.00,VWS V14.01,2013-01-11 21:23:00,
2013-01-11 16:25:00,36.0,30.8,30.33,ESE,112,0.0,0.0,81,0.00,,BKN110,0.00,VWS V14.01,2013-01-11 21:25:00,
2013-01-11 16:27:00,36.0,30.8,30.33,ESE,112,0.0,0.0,81,0.00,,BKN110,0.00,VWS V14.01,2013-01-11 21:27:00,
2013-01-11 16:28:00,36.0,30.8,30.33,ESE,112,0.0,0.0,81,0.00,,BKN110,0.00,VWS V14.01,2013-01-11 21:28:00,
2013-01-11 16:30:00,36.0,30.8,30.33,ESE,112,0.0,0.0,81,0.00,,BKN110,0.00,VWS V14.01,2013-01-11 21:30:00,
2013-01-11 16:32:00,36.0,30.8,30.33,ESE,112,0.0,0.0,81,0.00,,BKN110,0.00,VWS V14.01,2013-01-11 21:32:00,
2013-01-11 16:33:00,36.0,30.8,30.33,ESE,112,0.0,0.0,81,0.00,,BKN110,0.00,VWS V14.01,2013-01-11 21:33:00,
2013-01-11 16:35:00,36.0,30.8,30.32,ESE,112,0.0,0.0,81,0.00,,FEW110,0.00,VWS V14.01,2013-01-11 21:35:00,
2013-01-11 16:37:00,36.0,31.0,30.32,ESE,112,0.0,0.0,82,0.00,,FEW110,0.00,VWS V14.01,2013-01-11 21:37:00,
2013-01-11 16:38:00,36.0,31.0,30.32,ESE,112,0.0,0.0,82,0.00,,FEW110,0.00,VWS V14.01,2013-01-11 21:38:00,
2013-01-11 16:40:00,36.0,31.0,30.32,ESE,112,0.0,0.0,82,0.00,,FEW110,0.00,VWS V14.01,2013-01-11 21:40:00,
2013-01-11 16:42:00,36.0,31.0,30.32,ESE,112,0.0,0.0,82,0.00,,FEW110,0.00,VWS V14.01,2013-01-11 21:42:00,
2013-01-11 16:43:00,36.0,31.0,30.32,ESE,112,0.0,0.0,82,0.00,,FEW110,0.00,VWS V14.01,2013-01-11 21:43:00,
2013-01-11 16:45:00,36.0,31.0,30.32,ESE,112,0.0,0.0,82,0.00,,FEW110,0.00,VWS V14.01,2013-01-11 21:45:00,
2013-01-11 16:47:00,36.0,31.0,30.32,ESE,112,0.0,0.0,82,0.00,,FEW110,0.00,VWS V14.01,2013-01-11 21:47:00,
2013-01-11 16:48:00,36.0,31.0,30.32,ESE,112,0.0,0.0,82,0.00,,FEW110,0.00,VWS V14.01,2013-01-11 21:48:00,
2013-01-11 16:50:00,36.0,31.0,30.32,ESE,112,0.0,0.0,82,0.00,,FEW110,0.00,VWS V14.01,2013-01-11 21:50:00,
2013-01-11 16:52:00,36.0,31.0,30.32,ESE,112,0.0,0.0,82,0.00,,FEW110,0.00,VWS V14.01,2013-01-11 21:52:00,
2013-01-11 16:53:00,36.0,31.4,30.32,ESE,112,0.0,0.0,83,0.00,,FEW110,0.00,VWS V14.01,2013-01-11 21:53:00,
2013-01-11 16:55:00,36.0,31.4,30.32,ESE,112,0.0,0.0,83,0.00,,FEW110,0.00,VWS V14.01,2013-01-11 21:55:00,
2013-01-11 16:57:00,36.0,31.4,30.32,ESE,112,0.0,0.0,83,0.00,,FEW110,0.00,VWS V14.01,2013-01-11 21:57:00,
2013-01-11 16:58:00,36.0,31.4,30.32,ESE,112,0.0,0.0,83,0.00,,FEW110,0.00,VWS V14.01,2013-01-11 21:58:00,
2013-01-11 17:01:00,36.0,31.4,30.33,ESE,112,0.0,0.0,83,0.00,,FEW110,0.00,VWS V14.01,2013-01-11 22:01:00,
2013-01-11 17:02:00,36.0,31.4,30.33,ESE,112,0.0,0.0,83,0.00,,FEW110,0.00,VWS V14.01,2013-01-11 22:02:00,
2013-01-11 17:03:00,36.0,31.4,30.33,ESE,112,0.0,0.0,83,0.00,,FEW110,0.00,VWS V14.01,2013-01-11 22:03:00,
2013-01-11 17:06:00,36.0,31.6,30.33,ESE,112,0.0,0.0,84,0.00,,FEW110,0.00,VWS V14.01,2013-01-11 22:06:00,
2013-01-11 17:07:00,35.0,30.7,30.33,ESE,112,0.0,0.0,84,0.00,,FEW110,0.00,VWS V14.01,2013-01-11 22:07:00,
2013-01-11 17:08:00,35.0,30.4,30.33,ESE,112,0.0,0.0,83,0.00,,FEW110,0.00,VWS V14.01,2013-01-11 22:08:00,
2013-01-11 17:11:00,35.0,30.4,30.33,ESE,112,0.0,0.0,83,0.00,,FEW110,0.00,VWS V14.01,2013-01-11 22:11:00,
2013-01-11 17:12:00,35.0,30.4,30.33,ESE,112,0.0,0.0,83,0.00,,FEW110,0.00,VWS V14.01,2013-01-11 22:12:00,
2013-01-11 17:13:00,35.0,30.4,30.33,ESE,112,0.0,0.0,83,0.00,,FEW110,0.00,VWS V14.01,2013-01-11 22:13:00,
2013-01-11 17:16:00,35.0,30.4,30.32,ESE,112,0.0,0.0,83,0.00,,FEW110,0.00,VWS V14.01,2013-01-11 22:16:00,
2013-01-11 17:17:00,35.0,30.4,30.32,ESE,112,0.0,0.0,83,0.00,,FEW110,0.00,VWS V14.01,2013-01-11 22:17:00,
2013-01-11 17:18:00,35.0,30.7,30.32,ESE,112,0.0,0.0,84,0.00,,FEW110,0.00,VWS V14.01,2013-01-11 22:18:00,
2013-01-11 17:21:00,35.0,30.7,30.32,ESE,112,0.0,0.0,84,0.00,,FEW110,0.00,VWS V14.01,2013-01-11 22:21:00,
2013-01-11 17:22:00,35.0,30.7,30.32,ESE,112,0.0,0.0,84,0.00,,FEW110,0.00,VWS V14.01,2013-01-11 22:22:00,
2013-01-11 17:23:00,35.0,30.7,30.32,ESE,112,0.0,0.0,84,0.00,,FEW110,0.00,VWS V14.01,2013-01-11 22:23:00,
2013-01-11 17:24:00,35.0,30.7,30.32,ESE,112,0.0,0.0,84,0.00,,FEW110,0.00,VWS V14.01,2013-01-11 22:24:00,
2013-01-11 17:26:00,35.0,30.7,30.32,ESE,112,0.0,0.0,84,0.00,,FEW110,0.00,VWS V14.01,2013-01-11 22:26:00,
2013-01-11 17:27:00,35.0,30.7,30.32,ESE,112,0.0,0.0,84,0.00,,FEW110,0.00,VWS V14.01,2013-01-11 22:27:00,
2013-01-11 17:28:00,35.0,30.7,30.32,ESE,112,0.0,0.0,84,0.00,,FEW110,0.00,VWS V14.01,2013-01-11 22:28:00,
2013-01-11 17:29:00,35.0,30.7,30.32,ESE,112,0.0,0.0,84,0.00,,FEW110,0.00,VWS V14.01,2013-01-11 22:29:00,
2013-01-11 17:31:00,35.0,31.0,30.32,ESE,112,0.0,0.0,85,0.00,,FEW110,0.00,VWS V14.01,2013-01-11 22:31:00,
2013-01-11 17:32:00,35.0,31.0,30.32,ESE,112,0.0,0.0,85,0.00,,FEW110,0.00,VWS V14.01,2013-01-11 22:32:00,
2013-01-11 17:34:00,35.0,31.0,30.32,ESE,112,0.0,0.0,85,0.00,,FEW110,0.00,VWS V14.01,2013-01-11 22:34:00,
2013-01-11 17:37:00,35.0,31.0,30.32,ESE,112,0.0,0.0,85,0.00,,OVC095,0.00,VWS V14.01,2013-01-11 22:37:00,
2013-01-11 17:39:00,35.0,31.0,30.32,ESE,112,0.0,0.0,85,0.00,,OVC095,0.00,VWS V14.01,2013-01-11 22:39:00,
2013-01-11 17:42:00,35.0,31.0,30.32,ESE,112,0.0,0.0,85,0.00,,OVC095,0.00,VWS V14.01,2013-01-11 22:42:00,
2013-01-11 17:44:00,35.0,31.0,30.32,ESE,112,0.0,0.0,85,0.00,,OVC095,0.00,VWS V14.01,2013-01-11 22:44:00,
2013-01-11 17:47:00,35.0,31.0,30.32,ESE,112,0.0,0.0,85,0.00,,OVC095,0.00,VWS V14.01,2013-01-11 22:47:00,
2013-01-11 17:48:00,35.0,31.0,30.32,ESE,112,0.0,0.0,85,0.00,,OVC095,0.00,VWS V14.01,2013-01-11 22:48:00,
2013-01-11 17:49:00,35.0,31.0,30.32,ESE,112,0.0,0.0,85,0.00,,OVC095,0.00,VWS V14.01,2013-01-11 22:49:00,
2013-01-11 17:52:00,35.0,31.0,30.31,ESE,112,0.0,0.0,85,0.00,,OVC095,0.00,VWS V14.01,2013-01-11 22:52:00,
2013-01-11 17:53:00,35.0,31.0,30.31,ESE,112,0.0,0.0,85,0.00,,OVC095,0.00,VWS V14.01,2013-01-11 22:53:00,
2013-01-11 17:54:00,35.0,31.0,30.31,ESE,112,0.0,0.0,85,0.00,,OVC095,0.00,VWS V14.01,2013-01-11 22:54:00,
2013-01-11 17:57:00,35.0,31.0,30.31,ESE,112,0.0,0.0,85,0.00,,OVC095,0.00,VWS V14.01,2013-01-11 22:57:00,
2013-01-11 17:58:00,35.0,31.2,30.31,ESE,112,0.0,0.0,86,0.00,,OVC095,0.00,VWS V14.01,2013-01-11 22:58:00,
2013-01-11 17:59:00,35.0,31.2,30.31,ESE,112,0.0,0.0,86,0.00,,OVC095,0.00,VWS V14.01,2013-01-11 22:59:00,
2013-01-11 18:02:00,35.0,31.0,30.31,ESE,112,0.0,0.0,85,0.00,,OVC095,0.00,VWS V14.01,2013-01-11 23:02:00,
2013-01-11 18:03:00,35.0,31.0,30.31,ESE,112,0.0,0.0,85,0.00,,OVC095,0.00,VWS V14.01,2013-01-11 23:03:00,
2013-01-11 18:04:00,35.0,31.0,30.31,ESE,112,0.0,0.0,85,0.00,,OVC095,0.00,VWS V14.01,2013-01-11 23:04:00,
2013-01-11 18:07:00,35.0,31.0,30.31,ESE,112,0.0,0.0,85,0.00,,OVC095,0.00,VWS V14.01,2013-01-11 23:07:00,
2013-01-11 18:08:00,35.0,31.0,30.31,ESE,112,0.0,0.0,85,0.00,,OVC095,0.00,VWS V14.01,2013-01-11 23:08:00,
2013-01-11 18:09:00,35.0,31.0,30.31,ESE,112,0.0,0.0,85,0.00,,OVC095,0.00,VWS V14.01,2013-01-11 23:09:00,
2013-01-11 18:12:00,35.0,31.2,30.31,ESE,112,0.0,0.0,86,0.00,,OVC095,0.00,VWS V14.01,2013-01-11 23:12:00,
2013-01-11 18:13:00,35.0,31.2,30.31,ESE,112,0.0,0.0,86,0.00,,OVC095,0.00,VWS V14.01,2013-01-11 23:13:00,
2013-01-11 18:14:00,35.0,31.5,30.31,ESE,112,0.0,0.0,87,0.00,,OVC095,0.00,VWS V14.01,2013-01-11 23:14:00,
2013-01-11 18:17:00,35.0,31.2,30.31,ESE,112,0.0,0.0,86,0.00,,OVC095,0.00,VWS V14.01,2013-01-11 23:17:00,
2013-01-11 18:18:00,35.0,31.5,30.31,ESE,112,0.0,0.0,87,0.00,,OVC095,0.00,VWS V14.01,2013-01-11 23:18:00,
2013-01-11 18:19:00,34.0,30.5,30.31,ESE,112,0.0,0.0,87,0.00,,OVC095,0.00,VWS V14.01,2013-01-11 23:19:00,
2013-01-11 18:20:00,35.0,31.5,30.30,ESE,112,0.0,0.0,87,0.00,,OVC095,0.00,VWS V14.01,2013-01-11 23:20:00,
2013-01-11 18:22:00,34.0,30.8,30.30,ESE,112,0.0,0.0,88,0.00,,OVC095,0.00,VWS V14.01,2013-01-11 23:22:00,
2013-01-11 18:23:00,34.0,30.8,30.30,ESE,112,0.0,0.0,88,0.00,,OVC095,0.00,VWS V14.01,2013-01-11 23:23:00,
2013-01-11 18:24:00,34.0,30.8,30.30,ESE,112,0.0,0.0,88,0.00,,OVC095,0.00,VWS V14.01,2013-01-11 23:24:00,
2013-01-11 18:25:00,34.0,30.8,30.30,ESE,112,0.0,0.0,88,0.00,,OVC095,0.00,VWS V14.01,2013-01-11 23:25:00,
2013-01-11 18:27:00,34.0,30.8,30.30,ESE,112,0.0,0.0,88,0.00,,OVC095,0.00,VWS V14.01,2013-01-11 23:27:00,
2013-01-11 18:28:00,34.0,30.8,30.30,ESE,112,0.0,0.0,88,0.00,,OVC095,0.00,VWS V14.01,2013-01-11 23:28:00,
2013-01-11 18:30:00,34.0,30.8,30.29,ESE,112,0.0,0.0,88,0.00,,OVC095,0.00,VWS V14.01,2013-01-11 23:30:00,
2013-01-11 18:32:00,34.0,30.8,30.29,ESE,112,0.0,0.0,88,0.00,,OVC095,0.00,VWS V14.01,2013-01-11 23:32:00,
2013-01-11 18:33:00,34.0,30.8,30.29,ESE,112,0.0,0.0,88,0.00,,OVC095,0.00,VWS V14.01,2013-01-11 23:33:00,
2013-01-11 18:35:00,34.0,30.8,30.29,ESE,112,0.0,0.0,88,0.00,,OVC080,0.00,VWS V14.01,2013-01-11 23:35:00,
2013-01-11 18:37:00,34.0,31.1,30.29,ESE,112,0.0,0.0,89,0.00,,OVC080,0.00,VWS V14.01,2013-01-11 23:37:00,
2013-01-11 18:38:00,34.0,31.6,30.29,ESE,112,0.0,0.0,91,0.00,,OVC080,0.00,VWS V14.01,2013-01-11 23:38:00,
2013-01-11 18:40:00,34.0,31.9,30.29,ESE,112,0.0,0.0,92,0.00,,OVC080,0.00,VWS V14.01,2013-01-11 23:40:00,
2013-01-11 18:42:00,34.0,31.9,30.29,ESE,112,0.0,0.0,92,0.00,,OVC080,0.00,VWS V14.01,2013-01-11 23:42:00,
2013-01-11 18:44:00,34.0,31.9,30.29,ESE,112,0.0,0.0,92,0.00,,OVC080,0.00,VWS V14.01,2013-01-11 23:44:00,
2013-01-11 18:45:00,34.0,31.9,30.29,ESE,112,0.0,0.0,92,0.00,,OVC080,0.00,VWS V14.01,2013-01-11 23:45:00,
2013-01-11 18:47:00,34.0,31.9,30.29,ESE,112,0.0,0.0,92,0.00,,OVC080,0.00,VWS V14.01,2013-01-11 23:47:00,
2013-01-11 18:49:00,34.0,31.6,30.29,ESE,112,0.0,0.0,91,0.00,,OVC080,0.00,VWS V14.01,2013-01-11 23:49:00,
2013-01-11 18:50:00,34.0,31.6,30.28,ESE,112,0.0,0.0,91,0.00,,OVC080,0.00,VWS V14.01,2013-01-11 23:50:00,
2013-01-11 18:52:00,34.0,31.6,30.28,ESE,112,0.0,0.0,91,0.00,,OVC080,0.00,VWS V14.01,2013-01-11 23:52:00,
2013-01-11 18:54:00,34.0,31.6,30.28,ESE,112,0.0,0.0,91,0.00,,OVC080,0.00,VWS V14.01,2013-01-11 23:54:00,
2013-01-11 18:55:00,34.0,31.6,30.28,ESE,112,0.0,0.0,91,0.00,,OVC080,0.00,VWS V14.01,2013-01-11 23:55:00,
2013-01-11 18:56:00,34.0,31.6,30.28,ESE,112,0.0,0.0,91,0.00,,OVC080,0.00,VWS V14.01,2013-01-11 23:56:00,
2013-01-11 18:57:00,34.0,31.6,30.28,ESE,112,0.0,0.0,91,0.00,,OVC080,0.00,VWS V14.01,2013-01-11 23:57:00,
2013-01-11 18:59:00,34.0,31.6,30.28,ESE,112,0.0,0.0,91,0.00,,OVC080,0.00,VWS V14.01,2013-01-11 23:59:00,
2013-01-11 19:00:00,34.0,31.9,30.28,ESE,112,0.0,0.0,92,0.00,,OVC080,0.00,VWS V14.01,2013-01-12 00:00:00,
2013-01-11 19:01:00,34.0,31.9,30.28,ESE,112,0.0,0.0,92,0.00,,OVC080,0.00,VWS V14.01,2013-01-12 00:01:00,
2013-01-11 19:03:00,34.0,31.9,30.28,ESE,112,0.0,0.0,92,0.00,,OVC080,0.00,VWS V14.01,2013-01-12 00:03:00,
2013-01-11 19:04:00,34.0,32.2,30.28,ESE,112,0.0,0.0,93,0.00,,OVC080,0.00,VWS V14.01,2013-01-12 00:04:00,
2013-01-11 19:05:00,34.0,32.2,30.28,ESE,112,0.0,0.0,93,0.00,,OVC028,0.00,VWS V14.01,2013-01-12 00:05:00,
2013-01-11 19:06:00,34.0,32.2,30.28,ESE,112,0.0,0.0,93,0.00,,OVC028,0.00,VWS V14.01,2013-01-12 00:06:00,
2013-01-11 19:08:00,34.0,32.5,30.28,ESE,112,0.0,0.0,94,0.00,,OVC028,0.00,VWS V14.01,2013-01-12 00:08:00,
2013-01-11 19:10:00,34.0,32.2,30.28,ESE,112,0.0,0.0,93,0.00,,OVC028,0.00,VWS V14.01,2013-01-12 00:10:00,
2013-01-11 19:11:00,34.0,32.2,30.28,ESE,112,0.0,0.0,93,0.00,,OVC028,0.00,VWS V14.01,2013-01-12 00:11:00,
2013-01-11 19:13:00,33.0,31.2,30.28,ESE,112,0.0,0.0,93,0.00,,OVC028,0.00,VWS V14.01,2013-01-12 00:13:00,
2013-01-11 19:15:00,34.0,32.2,30.28,ESE,112,0.0,0.0,93,0.00,,OVC028,0.00,VWS V14.01,2013-01-12 00:15:00,
2013-01-11 19:16:00,34.0,32.7,30.28,ESE,112,0.0,0.0,95,0.00,,OVC028,0.00,VWS V14.01,2013-01-12 00:16:00,
2013-01-11 19:18:00,34.0,32.7,30.28,ESE,112,0.0,0.0,95,0.00,,OVC028,0.00,VWS V14.01,2013-01-12 00:18:00,
2013-01-11 19:20:00,34.0,32.7,30.28,ESE,112,0.0,0.0,95,0.00,,OVC028,0.00,VWS V14.01,2013-01-12 00:20:00,
2013-01-11 19:21:00,34.0,32.7,30.28,ESE,112,0.0,0.0,95,0.00,,OVC028,0.00,VWS V14.01,2013-01-12 00:21:00,
2013-01-11 19:23:00,33.0,31.7,30.28,ESE,112,0.0,0.0,95,0.00,,OVC028,0.00,VWS V14.01,2013-01-12 00:23:00,
2013-01-11 19:25:00,34.0,32.7,30.28,ESE,112,0.0,0.0,95,0.00,,OVC028,0.00,VWS V14.01,2013-01-12 00:25:00,
2013-01-11 19:26:00,34.0,32.7,30.28,ESE,112,0.0,0.0,95,0.00,,OVC028,0.00,VWS V14.01,2013-01-12 00:26:00,
2013-01-11 19:28:00,33.0,31.7,30.28,ESE,112,0.0,0.0,95,0.00,,OVC028,0.00,VWS V14.01,2013-01-12 00:28:00,
2013-01-11 19:30:00,34.0,32.7,30.28,ESE,112,0.0,0.0,95,0.00,,OVC028,0.00,VWS V14.01,2013-01-12 00:30:00,
2013-01-11 19:31:00,33.0,31.7,30.28,ESE,112,0.0,0.0,95,0.00,,OVC028,0.00,VWS V14.01,2013-01-12 00:31:00,
2013-01-11 19:33:00,33.0,31.7,30.28,ESE,112,0.0,0.0,95,0.00,,OVC028,0.00,VWS V14.01,2013-01-12 00:33:00,
2013-01-11 19:35:00,34.0,32.7,30.28,ESE,112,0.0,0.0,95,0.00,,OVC028,0.00,VWS V14.01,2013-01-12 00:35:00,
2013-01-11 19:36:00,33.0,31.7,30.28,ESE,112,0.0,0.0,95,0.00,,OVC028,0.00,VWS V14.01,2013-01-12 00:36:00,
2013-01-11 19:38:00,33.0,31.7,30.28,ESE,112,0.0,0.0,95,0.00,,OVC028,0.00,VWS V14.01,2013-01-12 00:38:00,
2013-01-11 19:41:00,33.0,31.7,30.26,ESE,112,0.0,0.0,95,0.00,,OVC028,0.00,VWS V14.01,2013-01-12 00:41:00,
2013-01-11 19:43:00,33.0,31.7,30.26,ESE,112,0.0,0.0,95,0.00,,OVC028,0.00,VWS V14.01,2013-01-12 00:43:00,
2013-01-11 19:46:00,33.0,31.7,30.26,ESE,112,0.0,0.0,95,0.00,,OVC028,0.00,VWS V14.01,2013-01-12 00:46:00,
2013-01-11 19:47:00,33.0,31.7,30.26,ESE,112,0.0,0.0,95,0.00,,OVC028,0.00,VWS V14.01,2013-01-12 00:47:00,
2013-01-11 19:48:00,33.0,31.7,30.26,ESE,112,0.0,0.0,95,0.00,,OVC028,0.00,VWS V14.01,2013-01-12 00:48:00,
2013-01-11 19:51:00,33.0,31.7,30.27,ESE,112,0.0,0.0,95,0.00,,OVC050,0.00,VWS V14.01,2013-01-12 00:51:00,
2013-01-11 19:52:00,33.0,31.7,30.27,ESE,112,0.0,0.0,95,0.00,,OVC050,0.00,VWS V14.01,2013-01-12 00:52:00,
2013-01-11 19:53:00,33.0,31.7,30.27,ESE,112,0.0,0.0,95,0.00,,OVC050,0.00,VWS V14.01,2013-01-12 00:53:00,
2013-01-11 19:56:00,33.0,31.7,30.27,ESE,112,0.0,0.0,95,0.00,,OVC050,0.00,VWS V14.01,2013-01-12 00:56:00,
2013-01-11 19:57:00,33.0,31.7,30.27,ESE,112,0.0,0.0,95,0.00,,OVC050,0.00,VWS V14.01,2013-01-12 00:57:00,
2013-01-11 19:58:00,33.0,31.7,30.27,ESE,112,0.0,0.0,95,0.00,,OVC050,0.00,VWS V14.01,2013-01-12 00:58:00,
2013-01-11 20:01:00,33.0,31.7,30.27,ESE,112,0.0,0.0,95,0.00,,OVC050,0.00,VWS V14.01,2013-01-12 01:01:00,
2013-01-11 20:02:00,33.0,31.7,30.27,ESE,112,0.0,0.0,95,0.00,,OVC050,0.00,VWS V14.01,2013-01-12 01:02:00,
2013-01-11 20:03:00,33.0,31.7,30.27,ESE,112,0.0,0.0,95,0.00,,OVC050,0.00,VWS V14.01,2013-01-12 01:03:00,
2013-01-11 20:06:00,34.0,32.7,30.27,ESE,112,0.0,0.0,95,0.00,,OVC050,0.00,VWS V14.01,2013-01-12 01:06:00,
2013-01-11 20:07:00,34.0,32.7,30.27,ESE,112,0.0,0.0,95,0.00,,OVC050,0.00,VWS V14.01,2013-01-12 01:07:00,
2013-01-11 20:08:00,34.0,32.7,30.27,ESE,112,0.0,0.0,95,0.00,,OVC050,0.00,VWS V14.01,2013-01-12 01:08:00,
2013-01-11 20:11:00,34.0,32.7,30.27,ESE,112,0.0,0.0,95,0.01,,OVC050,0.01,VWS V14.01,2013-01-12 01:11:00,
2013-01-11 20:12:00,34.0,32.7,30.27,ESE,112,0.0,0.0,95,0.01,,OVC050,0.01,VWS V14.01,2013-01-12 01:12:00,
2013-01-11 20:13:00,34.0,32.7,30.27,ESE,112,0.0,0.0,95,0.01,,OVC050,0.01,VWS V14.01,2013-01-12 01:13:00,
2013-01-11 20:16:00,34.0,32.7,30.27,ESE,112,0.0,0.0,95,0.01,,OVC050,0.01,VWS V14.01,2013-01-12 01:16:00,
2013-01-11 20:17:00,34.0,32.7,30.27,ESE,112,0.0,0.0,95,0.01,,OVC050,0.01,VWS V14.01,2013-01-12 01:17:00,
2013-01-11 20:18:00,34.0,32.7,30.27,ESE,112,0.0,0.0,95,0.01,,OVC050,0.01,VWS V14.01,2013-01-12 01:18:00,
2013-01-11 20:21:00,34.0,32.7,30.27,ESE,112,0.0,0.0,95,0.01,,OVC050,0.01,VWS V14.01,2013-01-12 01:21:00,
2013-01-11 20:22:00,34.0,32.7,30.27,ESE,112,0.0,0.0,95,0.01,,OVC050,0.01,VWS V14.01,2013-01-12 01:22:00,
2013-01-11 20:23:00,34.0,32.7,30.27,ESE,112,0.0,0.0,95,0.01,,OVC050,0.01,VWS V14.01,2013-01-12 01:23:00,
2013-01-11 20:27:00,34.0,32.7,30.27,ESE,112,0.0,0.0,95,0.02,,OVC050,0.02,VWS V14.01,2013-01-12 01:27:00,
2013-01-11 20:28:00,34.0,32.7,30.27,ESE,112,0.0,0.0,95,0.02,,OVC050,0.02,VWS V14.01,2013-01-12 01:28:00,
2013-01-11 20:32:00,34.0,32.7,30.27,ESE,112,0.0,0.0,95,0.03,,OVC050,0.03,VWS V14.01,2013-01-12 01:32:00,
2013-01-11 20:33:00,34.0,32.7,30.27,ESE,112,0.0,0.0,95,0.03,,OVC050,0.03,VWS V14.01,2013-01-12 01:33:00,
2013-01-11 20:37:00,34.0,32.7,30.26,ESE,112,0.0,0.0,95,0.03,,OVC050,0.04,VWS V14.01,2013-01-12 01:37:00,
2013-01-11 20:38:00,34.0,32.7,30.26,ESE,112,0.0,0.0,95,0.04,,OVC050,0.04,VWS V14.01,2013-01-12 01:38:00,
2013-01-11 20:39:00,34.0,32.7,30.26,ESE,112,0.0,0.0,95,0.04,,OVC050,0.04,VWS V14.01,2013-01-12 01:39:00,
2013-01-11 20:42:00,34.0,32.7,30.26,ESE,112,0.0,0.0,95,0.04,,OVC050,0.04,VWS V14.01,2013-01-12 01:42:00,
2013-01-11 20:43:00,34.0,32.7,30.26,ESE,112,0.0,0.0,95,0.04,,OVC050,0.04,VWS V14.01,2013-01-12 01:43:00,
2013-01-11 20:44:00,34.0,32.7,30.26,ESE,112,0.0,0.0,95,0.04,,OVC050,0.04,VWS V14.01,2013-01-12 01:44:00,
2013-01-11 20:47:00,34.0,32.7,30.26,ESE,112,0.0,0.0,95,0.04,,OVC050,0.04,VWS V14.01,2013-01-12 01:47:00,
2013-01-11 20:48:00,34.0,32.7,30.26,ESE,112,0.0,0.0,95,0.04,,OVC050,0.04,VWS V14.01,2013-01-12 01:48:00,
2013-01-11 20:49:00,34.0,32.7,30.26,ESE,112,0.0,0.0,95,0.04,,OVC050,0.04,VWS V14.01,2013-01-12 01:49:00,
2013-01-11 20:52:00,34.0,32.7,30.26,ESE,112,0.0,0.0,95,0.04,,OVC050,0.04,VWS V14.01,2013-01-12 01:52:00,
2013-01-11 20:53:00,34.0,32.7,30.26,ESE,112,0.0,0.0,95,0.04,,OVC050,0.04,VWS V14.01,2013-01-12 01:53:00,
2013-01-11 20:55:00,34.0,32.7,30.26,ESE,112,0.0,0.0,95,0.05,,OVC050,0.05,VWS V14.01,2013-01-12 01:55:00,
2013-01-11 20:57:00,34.0,32.7,30.26,ESE,112,0.0,0.0,95,0.05,,OVC050,0.05,VWS V14.01,2013-01-12 01:57:00,
2013-01-11 20:58:00,34.0,32.7,30.26,ESE,112,0.0,0.0,95,0.05,,OVC050,0.05,VWS V14.01,2013-01-12 01:58:00,
2013-01-11 21:00:00,34.0,32.7,30.26,ESE,112,0.0,0.0,95,0.05,,OVC050,0.05,VWS V14.01,2013-01-12 02:00:00,
2013-01-11 21:02:00,34.0,32.7,30.26,ESE,112,0.0,0.0,95,0.05,,OVC050,0.05,VWS V14.01,2013-01-12 02:02:00,
2013-01-11 21:03:00,34.0,32.7,30.26,ESE,112,0.0,0.0,95,0.05,,OVC050,0.05,VWS V14.01,2013-01-12 02:03:00,
2013-01-11 21:05:00,34.0,32.7,30.26,ESE,112,0.0,0.0,95,0.05,,OVC050,0.05,VWS V14.01,2013-01-12 02:05:00,
2013-01-11 21:08:00,34.0,32.7,30.26,ESE,112,0.0,0.0,95,0.05,,OVC050,0.05,VWS V14.01,2013-01-12 02:08:00,
2013-01-11 21:10:00,34.0,32.7,30.25,ESE,112,0.0,0.0,95,0.05,,OVC050,0.05,VWS V14.01,2013-01-12 02:10:00,
2013-01-11 21:13:00,34.0,32.7,30.25,ESE,112,0.0,0.0,95,0.05,,OVC050,0.05,VWS V14.01,2013-01-12 02:13:00,
2013-01-11 21:15:00,34.0,32.7,30.25,ESE,112,0.0,0.0,95,0.05,,OVC050,0.06,VWS V14.01,2013-01-12 02:15:00,
2013-01-11 21:18:00,34.0,32.7,30.25,ESE,112,0.0,0.0,95,0.06,,OVC050,0.06,VWS V14.01,2013-01-12 02:18:00,
2013-01-11 21:20:00,34.0,32.7,30.25,ESE,112,0.0,0.0,95,0.06,,OVC050,0.06,VWS V14.01,2013-01-12 02:20:00,
2013-01-11 21:23:00,34.0,32.7,30.25,ESE,112,0.0,0.0,95,0.05,,OVC050,0.06,VWS V14.01,2013-01-12 02:23:00,
2013-01-11 21:24:00,34.0,32.7,30.25,ESE,112,0.0,0.0,95,0.05,,OVC050,0.06,VWS V14.01,2013-01-12 02:24:00,
2013-01-11 21:25:00,34.0,32.7,30.26,ESE,112,0.0,0.0,95,0.05,,OVC050,0.06,VWS V14.01,2013-01-12 02:25:00,
2013-01-11 21:28:00,34.0,32.7,30.26,ESE,112,0.0,0.0,95,0.05,,OVC050,0.06,VWS V14.01,2013-01-12 02:28:00,
2013-01-11 21:29:00,34.0,32.7,30.26,ESE,112,0.0,0.0,95,0.05,,OVC050,0.06,VWS V14.01,2013-01-12 02:29:00,
2013-01-11 21:30:00,34.0,32.7,30.25,ESE,112,0.0,0.0,95,0.03,,OVC050,0.06,VWS V14.01,2013-01-12 02:30:00,
2013-01-11 21:33:00,34.0,32.7,30.25,ESE,112,0.0,0.0,95,0.03,,OVC050,0.06,VWS V14.01,2013-01-12 02:33:00,
2013-01-11 21:34:00,34.0,32.7,30.25,ESE,112,0.0,0.0,95,0.03,,OVC050,0.06,VWS V14.01,2013-01-12 02:34:00,
2013-01-11 21:35:00,34.0,32.7,30.25,ESE,112,0.0,0.0,95,0.04,,-RA,0.07,VWS V14.01,2013-01-12 02:35:00,
2013-01-11 21:38:00,34.0,32.7,30.25,ESE,112,0.0,0.0,95,0.04,,-RA,0.07,VWS V14.01,2013-01-12 02:38:00,
2013-01-11 21:39:00,34.0,32.7,30.25,ESE,112,0.0,0.0,95,0.04,,-RA,0.07,VWS V14.01,2013-01-12 02:39:00,
2013-01-11 21:41:00,34.0,32.7,30.25,ESE,112,0.0,0.0,95,0.03,,-RA,0.07,VWS V14.01,2013-01-12 02:41:00,
2013-01-11 21:43:00,34.0,32.7,30.25,ESE,112,0.0,0.0,95,0.03,,-RA,0.07,VWS V14.01,2013-01-12 02:43:00,
2013-01-11 21:44:00,34.0,32.7,30.25,ESE,112,0.0,0.0,95,0.03,,-RA,0.07,VWS V14.01,2013-01-12 02:44:00,
2013-01-11 21:46:00,34.0,32.7,30.25,ESE,112,0.0,0.0,95,0.03,,-RA,0.08,VWS V14.01,2013-01-12 02:46:00,
2013-01-11 21:48:00,34.0,32.7,30.25,ESE,112,0.0,0.0,95,0.04,,-RA,0.08,VWS V14.01,2013-01-12 02:48:00,
2013-01-11 21:49:00,34.0,32.7,30.25,ESE,112,0.0,0.0,95,0.04,,-RA,0.08,VWS V14.01,2013-01-12 02:49:00,
2013-01-11 21:51:00,34.0,32.7,30.25,ESE,112,0.0,0.0,95,0.04,,-RA,0.08,VWS V14.01,2013-01-12 02:51:00,
2013-01-11 21:53:00,34.0,32.7,30.25,ESE,112,0.0,0.0,95,0.04,,-RA,0.08,VWS V14.01,2013-01-12 02:53:00,
2013-01-11 21:54:00,34.0,32.7,30.25,ESE,112,0.0,0.0,95,0.04,,-RA,0.08,VWS V14.01,2013-01-12 02:54:00,
2013-01-11 21:56:00,34.0,32.7,30.25,ESE,112,0.0,0.0,95,0.04,,-RA,0.08,VWS V14.01,2013-01-12 02:56:00,
2013-01-11 21:58:00,34.0,32.7,30.25,ESE,112,0.0,0.0,95,0.04,,-RA,0.08,VWS V14.01,2013-01-12 02:58:00,
2013-01-11 21:59:00,34.0,32.7,30.25,ESE,112,0.0,0.0,95,0.04,,-RA,0.08,VWS V14.01,2013-01-12 02:59:00,
2013-01-11 22:00:00,34.0,32.7,30.25,ESE,112,0.0,0.0,95,0.04,,-RA,0.08,VWS V14.01,2013-01-12 03:00:00,
2013-01-11 22:01:00,34.0,32.7,30.25,ESE,112,0.0,0.0,95,0.03,,-RA,0.08,VWS V14.01,2013-01-12 03:01:00,
2013-01-11 22:03:00,34.0,32.7,30.25,ESE,112,0.0,0.0,95,0.04,,-RA,0.09,VWS V14.01,2013-01-12 03:03:00,
2013-01-11 22:04:00,34.0,32.7,30.25,ESE,112,0.0,0.0,95,0.04,,-RA,0.09,VWS V14.01,2013-01-12 03:04:00,
2013-01-11 22:05:00,34.0,32.7,30.24,ESE,112,0.0,0.0,95,0.04,,-RA,0.09,VWS V14.01,2013-01-12 03:05:00,
2013-01-11 22:06:00,34.0,32.7,30.24,ESE,112,0.0,0.0,95,0.04,,-RA,0.09,VWS V14.01,2013-01-12 03:06:00,
2013-01-11 22:09:00,34.0,32.7,30.24,ESE,112,0.0,0.0,95,0.04,,-RA,0.09,VWS V14.01,2013-01-12 03:09:00,
2013-01-11 22:10:00,34.0,32.7,30.24,ESE,112,0.0,0.0,95,0.04,,-RA,0.09,VWS V14.01,2013-01-12 03:10:00,
2013-01-11 22:11:00,34.0,32.7,30.24,ESE,112,0.0,0.0,95,0.04,,-RA,0.09,VWS V14.01,2013-01-12 03:11:00,
2013-01-11 22:14:00,34.0,32.7,30.24,ESE,112,0.0,0.0,95,0.04,,-RA,0.09,VWS V14.01,2013-01-12 03:14:00,
2013-01-11 22:15:00,34.0,32.7,30.24,ESE,112,0.0,0.0,95,0.04,,-RA,0.09,VWS V14.01,2013-01-12 03:15:00,
2013-01-11 22:16:00,34.0,32.7,30.24,ESE,112,0.0,0.0,95,0.04,,-RA,0.09,VWS V14.01,2013-01-12 03:16:00,
2013-01-11 22:19:00,34.0,32.7,30.24,ESE,112,0.0,0.0,95,0.04,,-RA,0.09,VWS V14.01,2013-01-12 03:19:00,
2013-01-11 22:20:00,34.0,32.7,30.24,ESE,112,0.0,0.0,95,0.04,,-RA,0.09,VWS V14.01,2013-01-12 03:20:00,
2013-01-11 22:22:00,34.0,32.7,30.24,ESE,112,0.0,0.0,95,0.03,,-RA,0.09,VWS V14.01,2013-01-12 03:22:00,
2013-01-11 22:24:00,34.0,32.7,30.24,ESE,112,0.0,0.0,95,0.03,,-RA,0.09,VWS V14.01,2013-01-12 03:24:00,
2013-01-11 22:25:00,34.0,32.7,30.24,ESE,112,0.0,0.0,95,0.03,,-RA,0.09,VWS V14.01,2013-01-12 03:25:00,
2013-01-11 22:27:00,34.0,32.7,30.24,ESE,112,0.0,0.0,95,0.03,,-RA,0.09,VWS V14.01,2013-01-12 03:27:00,
2013-01-11 22:29:00,34.0,32.7,30.24,ESE,112,0.0,0.0,95,0.03,,-RA,0.09,VWS V14.01,2013-01-12 03:29:00,
2013-01-11 22:30:00,34.0,32.7,30.24,ESE,112,0.0,0.0,95,0.03,,-RA,0.09,VWS V14.01,2013-01-12 03:30:00,
2013-01-11 22:31:00,34.0,32.7,30.24,ESE,112,0.0,0.0,95,0.03,,-RA,0.09,VWS V14.01,2013-01-12 03:31:00,
2013-01-11 22:32:00,34.0,32.7,30.24,ESE,112,0.0,0.0,95,0.03,,-RA,0.09,VWS V14.01,2013-01-12 03:32:00,
2013-01-11 22:34:00,34.0,32.7,30.24,ESE,112,0.0,0.0,95,0.04,,-RA,0.10,VWS V14.01,2013-01-12 03:34:00,
2013-01-11 22:35:00,34.0,32.7,30.24,ESE,112,0.0,0.0,95,0.04,,-RA,0.10,VWS V14.01,2013-01-12 03:35:00,
2013-01-11 22:36:00,34.0,32.7,30.24,ESE,112,0.0,0.0,95,0.04,,-RA,0.10,VWS V14.01,2013-01-12 03:36:00,
2013-01-11 22:37:00,34.0,32.7,30.24,ESE,112,0.0,0.0,95,0.04,,-RA,0.10,VWS V14.01,2013-01-12 03:37:00,
2013-01-11 22:39:00,34.0,32.7,30.24,ESE,112,0.0,0.0,95,0.04,,-RA,0.10,VWS V14.01,2013-01-12 03:39:00,
2013-01-11 22:40:00,34.0,32.7,30.24,ESE,112,0.0,0.0,95,0.04,,-RA,0.10,VWS V14.01,2013-01-12 03:40:00,
2013-01-11 22:41:00,34.0,32.7,30.24,ESE,112,0.0,0.0,95,0.03,,-RA,0.10,VWS V14.01,2013-01-12 03:41:00,
2013-01-11 22:43:00,34.0,32.7,30.24,ESE,112,0.0,0.0,95,0.03,,-RA,0.10,VWS V14.01,2013-01-12 03:43:00,
2013-01-11 22:44:00,34.0,32.7,30.24,ESE,112,0.0,0.0,95,0.03,,-RA,0.10,VWS V14.01,2013-01-12 03:44:00,
2013-01-11 22:45:00,34.0,32.7,30.24,ESE,112,0.0,0.0,95,0.03,,-RA,0.10,VWS V14.01,2013-01-12 03:45:00,
2013-01-11 22:46:00,34.0,32.7,30.24,ESE,112,0.0,0.0,95,0.03,,-RA,0.10,VWS V14.01,2013-01-12 03:46:00,
2013-01-11 22:48:00,34.0,32.7,30.24,North,360,0.0,0.0,95,0.03,,-RA,0.10,VWS V14.01,2013-01-12 03:48:00,
2013-01-11 22:49:00,34.0,32.7,30.24,North,360,0.0,0.0,95,0.03,,-RA,0.10,VWS V14.01,2013-01-12 03:49:00,
2013-01-11 22:50:00,35.0,33.7,30.24,North,360,0.0,0.0,95,0.02,,-RA,0.10,VWS V14.01,2013-01-12 03:50:00,
2013-01-11 22:51:00,35.0,33.7,30.24,North,360,0.0,0.0,95,0.02,,-RA,0.10,VWS V14.01,2013-01-12 03:51:00,
2013-01-11 22:53:00,35.0,33.7,30.24,North,360,0.0,0.0,95,0.02,,-RA,0.10,VWS V14.01,2013-01-12 03:53:00,
2013-01-11 22:54:00,35.0,33.7,30.24,North,360,0.0,0.0,95,0.02,,-RA,0.10,VWS V14.01,2013-01-12 03:54:00,
2013-01-11 22:56:00,35.0,33.7,30.24,North,360,0.0,0.0,95,0.02,,-RA,0.10,VWS V14.01,2013-01-12 03:56:00,
2013-01-11 22:58:00,35.0,33.7,30.24,North,360,0.0,0.0,95,0.02,,-RA,0.10,VWS V14.01,2013-01-12 03:58:00,
2013-01-11 23:00:00,35.0,33.7,30.24,North,360,0.0,0.0,95,0.02,,-RA,0.10,VWS V14.01,2013-01-12 04:00:00,
2013-01-11 23:01:00,35.0,33.7,30.24,North,360,0.0,0.0,95,0.02,,-RA,0.10,VWS V14.01,2013-01-12 04:01:00,
2013-01-11 23:03:00,35.0,33.7,30.24,North,360,0.0,0.0,95,0.02,,-RA,0.10,VWS V14.01,2013-01-12 04:03:00,
2013-01-11 23:05:00,35.0,33.7,30.25,North,360,0.0,0.0,95,0.03,,-RA,0.11,VWS V14.01,2013-01-12 04:05:00,
2013-01-11 23:06:00,35.0,33.7,30.25,North,360,0.0,0.0,95,0.03,,-RA,0.11,VWS V14.01,2013-01-12 04:06:00,
2013-01-11 23:07:00,35.0,33.7,30.25,North,360,0.0,0.0,95,0.03,,-RA,0.11,VWS V14.01,2013-01-12 04:07:00,
2013-01-11 23:08:00,35.0,33.7,30.25,North,360,0.0,0.0,95,0.03,,-RA,0.11,VWS V14.01,2013-01-12 04:08:00,
2013-01-11 23:10:00,35.0,33.7,30.24,North,360,0.0,0.0,95,0.03,,-RA,0.11,VWS V14.01,2013-01-12 04:10:00,
2013-01-11 23:12:00,35.0,33.7,30.24,North,360,0.0,0.0,95,0.02,,-RA,0.11,VWS V14.01,2013-01-12 04:12:00,
2013-01-11 23:13:00,35.0,33.7,30.24,North,360,0.0,0.0,95,0.02,,-RA,0.11,VWS V14.01,2013-01-12 04:13:00,
2013-01-11 23:15:00,35.0,33.7,30.24,North,360,0.0,0.0,95,0.02,,-RA,0.11,VWS V14.01,2013-01-12 04:15:00,
2013-01-11 23:16:00,35.0,33.7,30.24,North,360,0.0,0.0,95,0.03,,-RA,0.12,VWS V14.01,2013-01-12 04:16:00,
2013-01-11 23:17:00,35.0,33.7,30.24,North,360,0.0,0.0,95,0.03,,-RA,0.12,VWS V14.01,2013-01-12 04:17:00,
2013-01-11 23:18:00,35.0,33.7,30.24,North,360,0.0,0.0,95,0.03,,-RA,0.12,VWS V14.01,2013-01-12 04:18:00,
2013-01-11 23:20:00,35.0,33.7,30.24,North,360,0.0,0.0,95,0.03,,-RA,0.12,VWS V14.01,2013-01-12 04:20:00,
2013-01-11 23:22:00,35.0,33.7,30.24,North,360,0.0,0.0,95,0.03,,-RA,0.12,VWS V14.01,2013-01-12 04:22:00,
2013-01-11 23:30:00,35.0,33.7,30.24,North,360,0.0,0.0,95,0.03,,-RA,0.12,VWS V14.01,2013-01-12 04:30:00,
2013-01-11 23:40:00,35.0,33.7,30.24,North,360,0.0,0.0,95,0.03,,-RA,0.12,VWS V14.01,2013-01-12 04:40:00,
2013-01-11 23:50:00,35.0,33.7,30.23,North,360,0.0,0.0,95,0.03,,-RA,0.13,VWS V14.01,2013-01-12 04:50:00,